Tracking 29892 objects as of 21-Nov-2024
HD Live streaming from Space Station
objects crossing your sky now

STARLINK-31310

Track STARLINK-31310 now!
10-day predictions
STARLINK-31310 is classified as:


NORAD ID: 59092
Int'l Code: 2024-041U
Perigee: 494.2 km
Apogee: 495.8 km
Inclination: 43.0 °
Period: 94.4 minutes
Semi major axis: 6866 km
RCS: Unknown
Launch date: February 29, 2024
Source: United States (US)
Launch site: AIR FORCE EASTERN TEST RANGE (AFETR)
Your satellite tracking list
Your tracking list is empty




NASA's NSSDC Master Catalog

Two Line Element Set (TLE):
1 59092U 24041U   24325.76356991 -.00010785  00000-0 -40235-3 0  9998
2 59092  43.0029 104.3331 0001132 262.4853  97.5870 15.25966761 41826
Source of the keplerian elements: AFSPC